This is the latest recevied weather packets stored in our database for station/object CT1ETE-13. If no packets are shown the sender has not sent any weather packets the latest 10 day(s).
| Time | Temp. | Humidity | Pressure | Rain* | Wind** | Luminosity | Snow |
|---|---|---|---|---|---|---|---|
| 1777811631 | 14.44° C | 84% | 1013.1 hPa | 1.27 mm | - | - | - |
| 1777810727 | 14.44° C | 76% | 1013.1 hPa | 1.78 mm | - | - | - |
| 1777809887 | 13.89° C | 75% | 1013.2 hPa | 4.06 mm | - | - | - |
| 1777808987 | 13.89° C | 76% | 1013.3 hPa | 3.81 mm | - | - | - |
| 1777808027 | 13.33° C | 80% | 1013.4 hPa | 3.05 mm | - | - | - |
| 1777807127 | 13.89° C | 85% | 1013.3 hPa | 2.29 mm | - | - | - |
| 1777806226 | 14.44° C | 85% | 1013.3 hPa | 0.25 mm | - | - | - |
| 1777805323 | 15.56° C | 83% | 1013.3 hPa | 0 mm | - | - | - |
| 1777804422 | 15.56° C | 81% | 1013.3 hPa | 0 mm | - | - | - |
| 1777803520 | 15.56° C | 81% | 1013.2 hPa | 0 mm | - | - | - |
| 1777802621 | 15° C | 84% | 1013.4 hPa | 0 mm | - | - | - |
| 1777801720 | 15° C | 84% | 1013.3 hPa | 0 mm | - | - | - |
| 1777800818 | 14.44° C | 86% | 1013.3 hPa | 0 mm | - | - | - |
| 1777799920 | 13.89° C | 85% | 1013.4 hPa | 0 mm | - | - | - |
| 1777799022 | 13.89° C | 85% | 1013.3 hPa | 0 mm | - | - | - |
| 1777798124 | 13.89° C | 85% | 1013.2 hPa | 0 mm | - | - | - |
| 1777797219 | 13.89° C | 85% | 1013.4 hPa | 0 mm | - | - | - |
| 1777796320 | 14.44° C | 84% | 1013.4 hPa | 0 mm | - | - | - |
| 1777795418 | 13.89° C | 75% | 1013.3 hPa | 0 mm | - | - | - |
| 1777794520 | 13.33° C | 78% | 1013.4 hPa | 0 mm | - | - | - |
| 1777793620 | 13.33° C | 76% | 1013.4 hPa | 0 mm | - | - | - |
| 1777792720 | 13.33° C | 73% | 1013.4 hPa | 0 mm | - | - | - |
| 1777791820 | 12.78° C | 74% | 1013.3 hPa | 0 mm | - | - | - |
| 1777790917 | 12.78° C | 75% | 1013.3 hPa | 0 mm | - | - | - |
| 1777790017 | 12.78° C | 76% | 1013.1 hPa | 0 mm | - | - | - |
* Rain latest hour (hover to see other rain measurements)
** Current wind speed in m/s (hover to see current wind gust speed)